Location: Oakhurst
(33.6448°N, 111.9543°W)
Time: 06:36:34
(UTC+00:00)

Max Valier Satellite - Pass Details

Date: 04 August 2021
Orbit: 486 x 502 km, 97.2° (Epoch: 23 September)

Event Time Altitude Azimuth Distance (km) Brightness Sun altitude
Exits shadow 02:49:07 - 115° (ESE) 1,942 ? -5.3°
Reaches altitude 10° 02:50:08 10° 103° (ESE) 1,670 ? -5.5°
Maximum altitude 02:52:04 14° 70° (ENE) 1,438 ? -5.9°
Drops below altitude 10° 02:54:01 10° 37° (NE) 1,679 ? -6.2°
Sets 02:56:52 0° 12° (NNE) 2,569 ? -6.8°
